Probability
0 0 0 0 0 0 0 0 0 0 0 0 0 0 0 0 0 0 0 0 0 0 0 0 0 0 0 0 0 0 0 0 0 0 0 0 0 0 0 0 0 0 0
0 0 0 0 0 0 0 0 0 0 0 0 0 0 0 0 0 0 0 0 0 0 0 0 0 0 0 0 0 0 0 0 0 0 0 0 0 0 0 0 0 0 0
0 0 0 0 0 0 0 0 0 0 0 0 0 0 0 0 0 0 0 0 0 0 0 0 0 0 0 0 0 0 0 0 0 0 0 0 0 0 0 0 0 0 0
0 0 0 0 0 0 0 0 0 0 0 0 0 0 0 0 0 0 0 0 0 0 0 0 0 0 0 0 0 0 0 0 0 0 0 0 0 0 0 0 0 0 0
0 0 0 0 0 0 0 0 0 0 0 0 0 0 0 0 0 0 0 0 0 0 0 0 0 0 0 0 0 0 0 0 0 0 0 0 0 0 0 0 0 0 0
0 0 0 0 0 0 0 0 0 0 0 0 0 0 0 0 0 0 0 0 0 0 0 0 0 0 0 0 0 0 0 0 0 0 0 0 0 0 0 0 0 0 0
0 0 0 0 0 0 0 0 0 0 0 0 0 0 0 0 0 0 0 0 0 0 0 0 0 0 0 0 0 0 0 0 0 0 0 0 0 0 0 0 0 0 0
0 0 0 0 0 0 0 0 0 0 0 0 0 0 0 0 0 0 0 0 0 0 0 0 0 0 0 0 0 0 0 0 0 0 0 0 0 0 0 0 0 0 0
0 0 0 0 0 0 0 0 0 0 0 0 0 0 0 0 0 0 0 0 0 0 0 0 0 0 0 0 0 0 0 0 0 0 0 0 0 0 0 0 0 0 0
0 0 0 0 0 0 0 0 0 0 0 0 0 0 0 0 0 0 0 0 0 0 0 0 0 0 0 0 0 0 0 0 0 0 0 0 0 0 0 0 0 0 0
0 0 0 0 0 0 0 0 0 0 0 0 0 0 0 0 0 0 0 0 0 0 0 0 0 0 0 0 0 0 0 0 0 0 0 0 0 0 0 0 0 0 0
0 0 0 0 0 0 0 0 0 0 0 0 0 0 0 0 0 0 0 0 0 0 0 0 0 0 0 0 0 0 0 0 0 0 0 0 0 0 0 0 0 0 0
0 0 0 0 0 0 0 0 0 0 0 0 0 0 0 0 0 0 0 0 0 0 0 0 0 0 0 0 0 0 0 0 0 0 0 0 0 0 0 0 0 0 0
0 0 0 0 0 0 0 0 0 0 0 0 0 0 0 0 0 0 0 0 0 0 0 0 0 0 0 0 0 0 0 0 0 0 0 0 0 0 0 0 0 0 0
0 0 0 0 0 0 0 0 0 0 0 0 0 0 0 0 0 0 0 0 0 0 0 0 0 0 0 0 0 0 0 0 0 0 0 0 0 0 0 0 0 0 0
0 0 0 0 0 0 0 0 0 0 0 0 0 0 0 0 0 0 0 0 0 0 0 0 0 0 0 0 0 0 0 0 0 0 0 0 0 0 0 0 0 0 0
0 0 0 0 0 0 0 0 0 0 0 0 0 0 0 0 0 0 0 0 0 0 0 0 0 0 0 0 0 0 0 0 0 0 0 0 0 0 0 0 0 0 0
0 0 0 0 0 0 0 0 0 0 0 0 0 0 0 0 0 0 0 0 0 0 0 0 0 0 0 0 0 0 0 0 0 0 0 0 0 0 0 0 0 0 0
0 0 0 0 0 0 0 0 0 0 0 0 0 0 0 0 0 0 0 0 0 0 0 0 0 0 0 0 0 0 0 0 0 0 0 0 0 0 0 0 0 0 0
0 0 0 0 0 0 0 0 0 0 0 0 0 0 0 0 0 0 0 0 0 0 0 0 0 0 0 0 0 0 0 0 0 0 0 0 0 0 0 0 0 0 0
0 0 0 0 0 0 0 0 0 0 0 0 0 0 0 0 0 0 0 0 0 0 0 0 0 0 0 0 0 0 0 0 0 0 0 0 0 0 0 0 0 0 0
0 0 0 0 0 0 0 0 0 0 0 0 0 0 0 0 0 0 0 0 0 0 0 0 0 0 0 0 0 0 0 0 0 0 0 0 0 0 0 0 0 0 0
0 0 0 0 0 0 0 0 0 0 0 0 0 0 0 0 0 0 0 0 0 0 0 0 0 0 0 0 0 0 0 0 0 0 0 0 0 0 0 0 0 0 0
0 0 0 0 0 0 0 0 0 0 0 0 0 0 0 0 0 0 0 0 0 0 0 0 0 0 0 0 0 0 0 0 0 0 0 0 0 0 0 0 0 0 0
0 0 0 0 0 0 0 0 0 0 0 0 0 0 0 0 0 0 0 0 0 0 0 0 0 0 0 0 0 0 0 0 0 0 0 0 0 0 0 0 0 0 0
0 0 0 0 0 0 0 0 0 0 0 0 0 0 0 0 0 0 0 0 0 0 0 0 0 0 0 0 0 0 0 0 0 0 0 0 0 0 0 0 0 0 0
Height
5869 5869 5868 5868 5868 5867 5866 5865 5863 5862 5860 5858 5856 5854 5851 5849 5847 5844 5842 5840 5838 5836 5834 5832 5831 5829 5828 5827 5826 5825 5825 5825 5825 5825 5826 5826 5827 5828 5830 5831 5833 5835 5837
5868 5868 5868 5867 5867 5866 5865 5864 5863 5861 5860 5858 5856 5854 5852 5849 5847 5844 5842 5840 5838 5836 5834 5832 5830 5829 5827 5826 5825 5824 5824 5823 5823 5823 5823 5824 5824 5825 5826 5827 5828 5830 5832
5867 5867 5867 5866 5866 5865 5864 5863 5862 5861 5859 5857 5855 5853 5851 5849 5846 5844 5841 5839 5837 5835 5833 5831 5829 5827 5826 5824 5823 5822 5821 5821 5820 5820 5820 5820 5820 5821 5822 5823 5824 5825 5826
5865 5865 5865 5865 5865 5864 5863 5862 5861 5859 5858 5856 5854 5852 5850 5848 5845 5843 5840 5838 5836 5833 5831 5829 5827 5825 5823 5822 5820 5819 5818 5817 5817 5817 5816 5816 5816 5816 5817 5818 5818 5819 5820
5863 5864 5863 5863 5863 5862 5861 5860 5859 5857 5856 5854 5852 5850 5848 5846 5843 5841 5838 5836 5833 5831 5829 5826 5824 5822 5820 5818 5816 5815 5814 5813 5812 5812 5811 5811 5811 5811 5811 5812 5812 5813 5814
5861 5861 5861 5861 5860 5859 5859 5857 5856 5855 5853 5851 5849 5847 5845 5843 5840 5837 5835 5832 5830 5828 5825 5822 5820 5818 5815 5813 5811 5809 5808 5807 5807 5806 5806 5805 5805 5805 5805 5805 5805 5806 5807
5859 5858 5858 5858 5857 5856 5855 5854 5853 5851 5850 5848 5846 5844 5841 5839 5836 5833 5831 5828 5825 5823 5820 5817 5815 5812 5809 5807 5804 5802 5800 5799 5799 5799 5799 5798 5798 5797 5797 5797 5797 5798 5799
5855 5855 5854 5854 5853 5852 5851 5850 5849 5847 5845 5843 5841 5839 5836 5834 5831 5828 5825 5822 5819 5817 5814 5811 5808 5805 5801 5798 5796 5793 5791 5790 5790 5789 5789 5789 5789 5788 5788 5788 5788 5789 5790
5851 5851 5850 5850 5849 5848 5847 5845 5844 5842 5840 5838 5836 5833 5831 5828 5825 5822 5819 5815 5812 5809 5806 5802 5799 5795 5792 5789 5785 5783 5781 5780 5779 5779 5779 5778 5778 5778 5778 5778 5778 5778 5779
5846 5846 5845 5845 5844 5843 5841 5840 5838 5836 5834 5832 5829 5827 5824 5821 5818 5814 5811 5808 5805 5801 5797 5793 5789 5785 5781 5777 5774 5772 5770 5769 5768 5768 5767 5767 5766 5766 5766 5766 5766 5766 5767
5841 5840 5840 5839 5838 5836 5835 5833 5832 5829 5827 5825 5822 5819 5816 5813 5809 5806 5802 5799 5795 5792 5788 5784 5779 5775 5770 5766 5763 5760 5758 5757 5756 5756 5755 5755 5754 5753 5753 5753 5753 5754 5754
5835 5834 5833 5832 5831 5829 5828 5826 5824 5821 5819 5816 5813 5810 5807 5803 5800 5796 5792 5788 5785 5781 5777 5773 5769 5764 5759 5755 5751 5748 5746 5744 5743 5742 5742 5742 5741 5741 5740 5740 5740 5739 5740
5828 5827 5826 5825 5823 5822 5820 5818 5815 5813 5810 5807 5804 5801 5797 5793 5789 5785 5781 5778 5774 5770 5766 5762 5757 5753 5748 5743 5739 5735 5732 5730 5729 5728 5728 5727 5727 5726 5726 5726 5725 5725 5725
5820 5819 5818 5816 5815 5813 5811 5808 5806 5803 5800 5797 5794 5790 5787 5783 5778 5774 5771 5767 5764 5760 5755 5751 5746 5741 5736 5731 5727 5722 5719 5717 5715 5714 5713 5713 5712 5711 5710 5709 5709 5709 5709
5811 5810 5808 5807 5805 5803 5801 5798 5795 5792 5789 5786 5783 5780 5776 5772 5767 5763 5760 5756 5752 5748 5744 5740 5735 5730 5725 5720 5714 5710 5706 5703 5701 5699 5697 5696 5695 5694 5692 5691 5691 5690 5691
5801 5800 5798 5796 5794 5792 5790 5787 5784 5781 5778 5775 5771 5768 5764 5760 5756 5752 5748 5744 5740 5736 5732 5727 5722 5717 5712 5707 5702 5698 5693 5690 5686 5683 5681 5678 5677 5675 5674 5672 5671 5671 5671
5791 5789 5787 5785 5783 5781 5778 5775 5773 5770 5766 5762 5759 5755 5752 5748 5743 5739 5735 5731 5727 5723 5718 5714 5709 5703 5698 5693 5688 5683 5679 5674 5669 5666 5663 5660 5657 5655 5654 5652 5651 5650 5650
5779 5777 5775 5773 5771 5768 5766 5763 5760 5757 5754 5750 5746 5742 5739 5734 5730 5725 5721 5717 5713 5708 5704 5699 5694 5688 5683 5677 5672 5667 5662 5657 5652 5647 5643 5640 5637 5635 5633 5631 5630 5629 5629
5766 5764 5762 5760 5758 5755 5753 5750 5747 5744 5740 5737 5733 5729 5725 5721 5716 5711 5706 5702 5698 5693 5688 5683 5677 5672 5666 5660 5654 5649 5643 5638 5633 5628 5624 5620 5617 5614 5612 5611 5609 5608 5608
5753 5751 5749 5747 5744 5742 5739 5736 5733 5729 5726 5722 5719 5715 5710 5706 5702 5697 5691 5686 5681 5676 5671 5665 5660 5654 5648 5642 5636 5630 5624 5619 5613 5609 5604 5600 5596 5594 5592 5590 5589 5589 5588
5739 5737 5735 5732 5730 5727 5724 5721 5718 5715 5711 5708 5704 5699 5695 5691 5686 5681 5676 5670 5664 5659 5653 5647 5641 5635 5628 5622 5616 5610 5604 5599 5593 5588 5584 5580 5577 5574 5573 5571 5570 5570 5570
5725 5723 5720 5718 5715 5712 5709 5706 5702 5699 5695 5692 5688 5684 5678 5674 5669 5664 5658 5652 5646 5640 5634 5628 5622 5615 5608 5602 5596 5590 5584 5579 5574 5569 5565 5562 5559 5556 5555 5553 5552 5552 5552
5710 5708 5705 5702 5699 5696 5693 5690 5686 5683 5679 5675 5671 5667 5661 5656 5651 5645 5640 5634 5628 5621 5615 5608 5602 5596 5589 5582 5576 5569 5564 5559 5554 5550 5546 5543 5541 5539 5537 5535 5535 5534 5535
5694 5692 5689 5686 5683 5680 5677 5674 5670 5666 5662 5658 5653 5648 5643 5638 5632 5626 5620 5614 5608 5602 5595 5588 5581 5575 5569 5562 5556 5550 5545 5540 5535 5531 5527 5525 5523 5521 5519 5518 5518 5518 5518
5678 5676 5673 5670 5667 5663 5660 5656 5652 5648 5644 5639 5634 5629 5624 5618 5612 5606 5600 5594 5588 5581 5575 5568 5561 5555 5549 5543 5537 5532 5527 5522 5517 5513 5509 5507 5505 5504 5502 5502 5502 5502 5503
5661 5659 5656 5652 5649 5646 5642 5638 5634 5629 5625 5620 5614 5609 5604 5598 5592 5586 5580 5573 5567 5561 5555 5548 5541 5535 5529 5524 5519 5514 5509 5504 5500 5495 5492 5490 5488 5487 5486 5486 5486 5487 5488
Wind_Speed
0 1 3 4 6 7 8 9 10 11 12 13 14 15 16 16 16 16 16 16 16 15 14 14 13 12 12 11 10 9 8 7 7 8 9 11 13 14 17 19 21 23 25
1 2 3 4 5 6 7 8 10 11 11 12 13 14 15 16 16 16 16 16 16 16 15 14 14 14 13 12 11 10 10 10 9 9 10 12 13 14 16 18 21 23 25
2 3 4 4 5 6 7 9 9 10 11 12 13 14 15 16 16 17 16 16 16 16 16 16 15 15 15 14 14 13 12 12 12 12 12 13 14 15 17 18 20 23 24
4 4 5 6 6 7 8 9 10 11 12 12 13 14 15 16 17 17 17 17 17 17 17 17 17 17 16 16 16 15 15 14 14 14 14 15 16 17 18 19 20 22 25
6 6 7 7 8 8 10 11 12 12 13 13 14 15 16 17 18 18 18 18 18 18 19 19 19 19 18 18 18 18 18 17 17 17 18 18 18 19 20 21 22 23 25
7 8 8 9 9 10 11 13 13 14 15 15 16 17 18 19 20 20 20 20 20 20 21 21 21 22 22 21 21 21 21 21 20 20 21 20 20 21 22 23 24 25 26
9 9 10 11 11 13 14 15 16 16 17 18 18 19 20 21 22 23 23 23 23 23 24 24 25 25 25 25 25 24 24 24 23 23 23 24 24 24 24 25 26 26 27
11 12 12 13 14 15 16 17 18 19 20 20 21 22 23 24 25 26 26 26 26 27 28 28 28 29 29 29 29 28 27 27 27 27 27 28 28 27 28 28 29 29 30
14 14 15 16 17 18 19 20 21 22 23 24 24 25 26 27 28 29 29 29 30 31 32 32 32 33 33 33 33 31 31 31 30 30 31 31 32 32 32 32 32 33 33
17 17 18 19 20 21 22 23 24 25 26 27 28 29 30 30 31 32 32 32 33 34 35 36 36 37 37 36 36 34 33 33 34 33 34 34 35 35 35 35 36 36 36
20 21 21 22 23 24 25 26 27 28 29 30 31 32 33 34 35 35 35 35 36 37 38 38 39 39 39 38 37 36 36 36 37 37 36 37 38 38 38 38 39 39 39
23 23 25 26 27 27 28 30 31 32 33 34 34 35 36 37 37 37 37 37 39 39 40 41 41 41 41 40 40 39 39 39 39 39 40 40 40 41 41 42 42 43 43
26 27 28 29 30 31 32 33 34 35 36 36 37 37 38 39 40 40 39 40 41 41 42 42 43 43 43 43 43 43 43 43 42 42 43 43 44 45 45 45 46 47 47
29 30 31 32 33 34 35 36 37 38 38 39 39 40 40 41 42 42 41 41 42 43 43 44 44 45 45 46 45 45 45 45 45 45 46 46 47 48 49 49 49 50 50
33 33 34 36 37 37 38 39 40 40 41 41 41 42 43 43 43 43 43 43 44 45 45 46 47 47 48 48 47 47 48 48 48 49 50 49 50 52 53 53 53 53 54
36 37 38 38 39 40 41 41 42 42 43 43 44 44 45 45 45 45 45 45 47 48 48 49 49 50 50 50 50 51 51 51 52 53 53 53 54 54 55 56 55 56 56
39 40 40 41 42 42 43 43 44 44 45 46 46 46 47 47 47 48 48 48 49 50 51 52 53 53 54 54 54 54 55 55 56 56 56 57 57 57 57 58 57 57 57
41 42 42 43 44 44 45 46 46 47 47 48 48 48 48 49 50 51 52 52 53 53 54 55 56 57 57 58 58 58 59 59 59 58 58 59 59 58 58 59 58 58 57
43 44 45 45 46 47 48 48 49 49 50 50 50 50 51 52 53 54 55 55 56 56 57 58 59 61 61 61 61 62 62 61 60 60 60 60 60 59 58 58 58 57 56
46 47 47 48 49 50 50 51 51 51 51 52 52 53 54 54 55 56 57 58 58 59 60 61 62 63 64 64 64 64 63 62 61 61 61 60 59 58 57 56 55 54 53
49 49 50 51 52 52 53 53 53 53 53 53 54 55 56 57 57 58 59 60 61 62 63 64 65 66 66 66 65 64 63 62 61 60 59 58 57 56 55 54 53 52 51
51 52 52 53 54 54 54 54 54 54 55 55 56 57 58 59 60 61 62 62 63 64 65 66 66 67 67 66 65 64 63 61 60 59 57 56 55 53 52 51 50 50 50
53 53 54 55 55 55 55 55 55 56 57 58 59 60 61 62 63 64 65 65 65 66 66 67 67 66 65 65 64 62 61 59 58 57 56 54 53 52 51 49 48 47 47
54 55 56 56 57 57 57 57 57 58 59 61 62 63 64 65 66 66 66 66 67 67 67 67 67 66 64 63 61 60 60 59 57 56 54 53 52 49 48 47 46 45 44
55 56 57 58 58 58 58 59 60 61 62 64 65 65 66 67 67 68 68 68 68 68 67 66 65 64 63 62 61 59 58 57 56 55 53 51 50 48 45 44 43 43 42
57 58 59 59 59 60 61 62 63 64 65 66 66 67 68 68 68 69 68 68 68 67 66 65 64 62 61 60 58 57 56 54 53 52 51 49 47 45 43 42 41 41 41
Wind_Direction
276 4 7 6 6 6 5 7 7 8 9 10 9 8 8 9 10 11 11 11 9 7 6 5 3 0 358 355 348 339 332 321 299 275 260 254 248 243 240 237 235 232 231
262 319 338 346 352 354 354 356 357 358 359 1 2 3 3 2 1 1 1 1 1 359 358 356 352 348 345 344 340 333 325 319 310 293 278 267 257 251 249 245 242 238 235
267 296 314 328 337 341 342 344 346 347 349 351 353 354 355 356 355 354 353 353 352 350 349 347 343 339 335 332 330 325 318 312 306 299 287 277 269 259 256 253 249 245 240
268 286 299 312 320 327 331 333 334 336 337 340 343 345 346 348 348 347 346 345 344 344 342 341 339 334 330 325 322 318 313 307 300 296 291 282 275 268 262 259 256 252 249
269 282 292 300 306 312 318 321 324 327 327 329 332 335 336 338 339 339 338 337 336 336 335 334 333 330 325 320 316 312 307 303 298 294 291 286 279 273 267 265 263 259 256
273 282 288 292 298 305 311 315 318 319 319 320 322 324 325 327 329 330 330 329 328 329 328 327 326 325 322 317 312 306 302 298 295 292 289 287 284 279 273 269 266 264 262
276 282 287 292 296 302 306 309 311 312 313 313 314 316 318 320 321 322 321 320 320 321 322 322 321 320 318 315 308 302 297 294 291 289 287 285 283 280 277 273 270 268 266
276 283 287 291 294 298 302 305 306 307 308 308 310 312 313 314 316 316 315 314 313 314 316 316 315 315 313 311 307 301 295 292 289 287 285 284 283 281 279 276 274 271 269
277 282 287 291 294 296 299 302 303 303 304 305 306 307 308 309 311 311 311 310 310 310 311 311 311 310 309 308 305 300 295 290 288 286 284 283 282 282 280 278 276 273 270
278 282 285 289 292 294 296 298 300 301 301 302 303 303 304 306 307 307 307 307 307 308 309 309 308 308 307 305 303 300 295 290 287 286 284 284 282 281 278 277 276 275 272
280 283 285 288 291 293 295 296 298 299 300 300 301 302 302 304 304 305 304 304 304 305 306 307 307 307 305 303 302 299 296 290 286 284 283 283 282 280 278 278 276 275 273
280 283 285 288 290 292 294 296 297 298 299 300 301 301 301 302 303 302 302 302 303 304 304 306 306 307 305 303 301 298 295 291 287 284 282 282 281 280 278 278 278 277 275
280 283 286 288 290 292 294 295 297 298 298 299 300 301 301 302 301 301 300 300 302 302 303 304 305 305 304 303 301 298 295 290 287 284 282 282 282 280 277 277 276 276 275
280 283 286 288 290 292 294 295 296 297 298 298 299 300 301 301 301 300 299 299 300 301 302 302 303 304 304 303 301 299 296 291 288 285 283 283 282 281 279 277 276 275 274
280 283 285 287 289 290 292 294 295 296 296 297 298 299 300 300 299 299 299 299 299 301 301 301 302 302 302 303 302 300 297 293 290 287 284 283 283 282 280 277 276 275 274
281 283 285 286 288 289 291 293 294 295 295 296 297 298 299 299 298 298 298 298 299 300 301 301 302 301 301 301 301 300 297 295 292 290 287 285 284 282 281 279 277 276 275
282 283 284 286 288 289 291 292 293 294 294 295 296 297 297 298 298 298 298 298 299 300 301 301 301 301 301 301 300 299 297 295 293 291 289 287 285 284 282 280 278 277 275
282 283 285 286 288 289 291 292 292 293 294 294 295 296 297 297 298 298 298 298 299 299 300 301 301 301 301 300 300 299 298 296 294 292 290 287 286 285 283 280 278 277 275
283 284 285 286 287 289 290 291 292 292 293 294 294 295 296 297 298 299 299 298 298 299 300 300 301 301 300 299 299 299 298 297 294 293 291 288 286 284 283 280 278 276 274
282 284 285 286 287 288 289 290 291 292 292 293 294 295 296 297 298 299 299 299 299 299 300 300 301 301 301 300 298 299 299 297 295 293 291 289 286 284 282 280 276 274 272
282 284 285 286 287 288 289 290 291 291 292 293 294 295 296 297 298 299 299 299 299 300 300 300 300 300 301 300 299 298 298 297 295 292 291 289 286 283 281 279 275 272 270
282 284 285 286 287 288 289 290 290 291 292 293 294 295 296 297 298 298 299 299 299 300 300 301 300 300 300 300 299 298 297 297 295 292 290 288 286 284 281 278 274 272 269
283 284 285 286 288 288 289 290 290 291 292 293 294 295 296 297 297 298 299 299 299 299 300 300 301 300 300 299 299 298 296 296 295 292 289 288 287 284 280 277 274 271 268
283 283 285 286 287 288 288 289 290 291 292 293 294 295 296 296 297 298 299 299 299 299 299 300 300 300 299 298 298 298 296 295 294 293 290 288 286 283 280 276 272 269 266
283 284 285 286 287 288 288 289 290 292 293 294 294 295 296 296 297 298 298 298 298 298 299 299 299 299 298 297 297 297 297 295 293 292 290 287 285 282 278 274 271 266 263
283 284 285 286 287 288 289 290 291 292 293 294 294 295 296 296 297 297 298 298 298 298 299 299 298 298 298 297 296 295 294 294 292 290 289 287 285 281 276 273 269 265 261